Weather reports worldwide

Advertisment
Lampedusa, Italy (16490): temperature & dewpoint: 29.03.2020 00:00:00 - 04.04.2020 00:00:00 (CEST)Lampedusa, Italy (16490): wind speed: 29.03.2020 00:00:00 - 04.04.2020 00:00:00 (CEST)Lampedusa, Italy (16490): wind direction: 29.03.2020 00:00:00 - 04.04.2020 00:00:00 (CEST)Lampedusa, Italy (16490): reduced air pressure: 29.03.2020 00:00:00 - 04.04.2020 00:00:00 (CEST)Lampedusa, Italy (16490): visibility: 29.03.2020 00:00:00 - 04.04.2020 00:00:00 (CEST)Lampedusa, Italy (16490): precipitation: 29.03.2020 00:00:00 - 04.04.2020 00:00:00 (CEST)
Date & Time tt [°C] td [°C] ff [km/h] ff [kn] dd ppp [hPa] vv [km] rr [mm]
04.04.2020 00:00:00 14,0 11,0 18 10 N - 10 -
03.04.2020 23:00:00 14,2 10,6 16 9 NNW 1009,7 10 0,0
03.04.2020 22:00:00 14,0 11,0 22 12 N - 10 -
03.04.2020 21:00:00 14,0 11,0 18 10 N - 10 -
03.04.2020 20:00:00 14,6 10,6 11 6 N 1008,7 10 -
03.04.2020 19:00:00 15,0 11,0 21 11 N - 10 -
03.04.2020 18:00:00 14,0 11,0 24 13 NNE - 10 -
03.04.2020 17:00:00 14,5 11,0 31 17 NNE 1006,9 10 0,0
03.04.2020 16:00:00 15,0 11,0 31 17 NE - 10 -
03.04.2020 15:00:00 15,0 11,0 29 16 NE - 10 -
03.04.2020 14:00:00 14,6 11,3 26 14 NE 1007,9 10 -
03.04.2020 13:00:00 15,0 12,0 29 16 NE - 10 -
03.04.2020 12:00:00 15,0 11,0 35 19 ENE - 10 -
03.04.2020 11:00:00 14,6 11,3 34 18 ENE 1007,3 10 0,0
03.04.2020 10:00:00 15,0 12,0 31 17 ENE - 10 -
03.04.2020 09:00:00 15,0 12,0 29 16 ENE - 10 -
03.04.2020 08:00:00 14,7 11,6 28 15 E 1007,7 10 -
03.04.2020 07:00:00 - - - - - - - -
03.04.2020 06:00:00 15,0 12,0 28 15 E - 9 -
03.04.2020 05:00:00 14,7 11,7 34 18 E 1007,0 9 0,0
03.04.2020 04:00:00 15,0 12,0 37 20 ENE - 9 -
03.04.2020 03:00:00 15,0 12,0 41 22 ENE - 9 -
03.04.2020 02:00:00 14,8 11,9 44 24 ENE 1006,6 8 -
03.04.2020 01:00:00 15,0 12,0 39 21 ENE - 8 -
03.04.2020 00:00:00 15,0 12,0 39 21 ENE - 9 -
02.04.2020 23:00:00 15,2 12,3 44 24 ENE 1008,2 10 0,0
02.04.2020 22:00:00 15,0 13,0 44 24 ENE - 10 -
02.04.2020 21:00:00 15,0 13,0 35 19 ENE - 9 -
02.04.2020 20:00:00 15,5 12,7 35 19 E 1008,0 9 -
02.04.2020 19:00:00 16,0 13,0 37 20 ENE - 9 -
02.04.2020 18:00:00 16,0 14,0 35 19 ENE - 9 -
02.04.2020 17:00:00 16,2 13,7 31 17 ENE 1007,7 9 0,0
02.04.2020 16:00:00 17,0 14,0 29 16 E - 9 -
02.04.2020 15:00:00 17,0 14,0 31 17 E - 9 -
02.04.2020 14:00:00 16,6 13,5 37 20 E 1007,9 10 -
02.04.2020 13:00:00 17,0 14,0 41 22 E - 10 -
02.04.2020 12:00:00 16,0 13,0 42 23 E - 10 -
02.04.2020 11:00:00 16,2 13,5 35 19 E 1010,1 10 0,0
02.04.2020 10:00:00 16,0 13,0 37 20 E - 10 -
02.04.2020 09:00:00 16,0 14,0 31 17 E - 10 -
02.04.2020 08:00:00 15,4 13,1 28 15 E 1011,2 10 -
02.04.2020 07:00:00 15,0 13,0 24 13 E - 10 -
02.04.2020 06:00:00 15,0 13,0 18 10 ENE - 10 -
02.04.2020 05:00:00 15,2 12,4 21 11 E 1011,8 10 0,0
02.04.2020 04:00:00 15,0 12,0 22 12 ENE - 10 -
02.04.2020 03:00:00 15,0 11,0 18 10 ENE - 10 -
02.04.2020 02:00:00 14,8 11,8 22 12 NE 1012,2 10 -
02.04.2020 01:00:00 15,0 12,0 13 7 NNE - 10 -
02.04.2020 00:00:00 - - - - - - - -
01.04.2020 23:00:00 14,8 11,3 15 8 NE 1013,9 10 0,0
01.04.2020 22:00:00 15,0 11,0 21 11 NNE - 10 -
01.04.2020 21:00:00 15,0 12,0 21 11 NNE - 10 -
01.04.2020 20:00:00 15,4 12,6 21 11 NNE 1013,8 10 -
01.04.2020 19:00:00 16,0 13,0 18 10 N - 10 -
01.04.2020 18:00:00 16,0 13,0 21 11 NNE - 10 -
01.04.2020 17:00:00 17,1 13,4 21 11 N 1013,6 10 0,0
01.04.2020 16:00:00 18,0 14,0 21 11 NNE - 10 -
01.04.2020 15:00:00 18,0 14,0 21 11 N - 10 -
01.04.2020 14:00:00 18,1 14,0 16 9 N 1014,2 10 -
01.04.2020 13:00:00 19,0 14,0 18 10 WNW - 10 -
01.04.2020 12:00:00 19,0 14,0 22 12 WSW - 10 -
01.04.2020 11:00:00 - - - - - - - -
01.04.2020 10:00:00 - - - - - - - -
01.04.2020 09:00:00 - - - - - - - -
01.04.2020 08:00:00 16,3 14,1 13 7 WSW 1013,4 10 -
01.04.2020 07:00:00 16,0 14,0 22 12 SW - 10 -
01.04.2020 06:00:00 16,0 14,0 21 11 SW - 10 -
01.04.2020 05:00:00 16,2 13,6 21 11 SW 1013,6 10 0,0
01.04.2020 04:00:00 16,0 13,0 24 13 SSW - 10 -
01.04.2020 03:00:00 16,0 13,0 18 10 SW - 10 -
01.04.2020 02:00:00 16,3 12,9 21 11 S 1014,4 10 -
01.04.2020 01:00:00 16,0 13,0 18 10 S - 10 -
01.04.2020 00:00:00 16,0 14,0 18 10 S - 10 -
31.03.2020 23:00:00 15,9 13,8 13 7 S 1015,6 10 0,0
31.03.2020 22:00:00 16,0 14,0 11 6 S - 10 -
31.03.2020 21:00:00 16,0 13,0 9 5 SSE - 10 -
31.03.2020 20:00:00 15,9 13,1 11 6 S 1015,3 10 -
31.03.2020 19:00:00 17,0 12,0 16 9 S - 10 -
31.03.2020 18:00:00 17,0 13,0 16 9 S - 10 -
31.03.2020 17:00:00 17,5 12,4 16 9 S 1015,7 10 0,0
31.03.2020 16:00:00 - - - - - - - -
31.03.2020 15:00:00 - - - - - - - -
31.03.2020 14:00:00 17,3 11,6 11 6 SSW 1016,6 10 -
31.03.2020 13:00:00 17,0 12,0 15 8 SW - 10 -
31.03.2020 12:00:00 17,0 12,0 15 8 SW - 10 -
31.03.2020 11:00:00 16,3 11,6 15 8 SW 1017,3 10 0,0
31.03.2020 10:00:00 - - - - - - - -
31.03.2020 09:00:00 15,0 11,0 11 6 WNW - 10 -
31.03.2020 08:00:00 13,7 11,0 5 3 W 1016,5 10 -
31.03.2020 07:00:00 13,0 11,0 9 5 WNW - 10 -
31.03.2020 06:00:00 13,0 11,0 11 6 W - 10 -
31.03.2020 05:00:00 13,2 10,5 9 5 WNW 1015,6 10 0,0
31.03.2020 04:00:00 13,0 10,0 11 6 WNW - 10 -
31.03.2020 03:00:00 13,0 10,0 9 5 WNW - 10 -
31.03.2020 02:00:00 13,5 10,5 13 7 W 1016,0 10 -
31.03.2020 01:00:00 - - - - - - - -
31.03.2020 00:00:00 - - - - - - - -
30.03.2020 23:00:00 13,7 10,1 8 4 WNW 1015,8 10 0,0
30.03.2020 22:00:00 14,0 10,0 11 6 NW - 10 -
30.03.2020 21:00:00 14,0 9,0 13 7 NW - 10 -
30.03.2020 20:00:00 14,2 9,3 11 6 NW 1014,2 10 -
30.03.2020 19:00:00 15,0 9,0 18 10 NNW - 10 -
30.03.2020 18:00:00 15,0 10,0 16 9 NNW - 10 -
30.03.2020 17:00:00 14,9 9,7 18 10 N 1013,1 10 0,0
30.03.2020 16:00:00 15,0 10,0 21 11 N - 10 -
30.03.2020 15:00:00 16,0 10,0 24 13 NNW - 10 -
30.03.2020 14:00:00 14,8 9,4 22 12 N 1013,2 10 -
30.03.2020 13:00:00 16,0 9,0 22 12 NNW - 10 -
30.03.2020 12:00:00 15,0 10,0 18 10 NNW - 10 -
30.03.2020 11:00:00 14,4 10,2 16 9 N 1013,0 10 0,0
30.03.2020 10:00:00 13,0 10,0 29 16 NNW - 10 -
30.03.2020 09:00:00 13,0 10,0 24 13 N - 10 -
30.03.2020 08:00:00 13,3 9,6 18 10 NNW 1011,4 10 -
30.03.2020 07:00:00 13,0 9,0 18 10 NNW - 10 -
30.03.2020 06:00:00 13,0 9,0 16 9 NNW - 10 -
30.03.2020 05:00:00 13,2 8,6 13 7 NNW 1010,9 10 0,0
30.03.2020 04:00:00 13,0 9,0 15 8 NNW - 10 -
30.03.2020 03:00:00 13,0 9,0 18 10 N - 10 -
30.03.2020 02:00:00 12,8 9,1 16 9 N 1011,7 10 -
30.03.2020 01:00:00 13,0 9,0 21 11 N - 10 -
30.03.2020 00:00:00 12,0 10,0 16 9 N - 10 -
29.03.2020 23:00:00 11,8 9,7 22 12 N 1012,5 10 0,0
29.03.2020 22:00:00 13,0 10,0 21 11 NNW - 10 -
29.03.2020 21:00:00 14,0 10,0 26 14 NNW - 10 -
29.03.2020 20:00:00 14,5 9,4 21 11 N 1011,6 10 -
29.03.2020 19:00:00 15,0 9,0 22 12 NNE - 10 -
29.03.2020 18:00:00 15,0 9,0 18 10 N - 10 -
29.03.2020 17:00:00 14,9 9,2 16 9 NNE 1011,5 10 0,0
29.03.2020 16:00:00 16,0 10,0 16 9 NNE - 10 -
29.03.2020 15:00:00 16,0 10,0 16 9 NNE - 10 -
29.03.2020 14:00:00 15,9 9,7 15 8 NNE 1012,8 10 -
29.03.2020 13:00:00 16,0 10,0 18 10 NNE - 10 -
29.03.2020 12:00:00 16,0 9,0 22 12 NNE - 10 -
29.03.2020 11:00:00 15,4 9,1 24 13 NNE 1012,8 10 0,0
29.03.2020 10:00:00 15,0 10,0 22 12 NE - 10 -
29.03.2020 09:00:00 14,0 11,0 22 12 NNE - 10 -
29.03.2020 08:00:00 14,3 10,3 16 9 NNE 1013,4 10 -
29.03.2020 07:00:00 14,0 10,0 13 7 NE - 10 -
29.03.2020 06:00:00 14,0 10,0 8 4 ENE - 10 -
29.03.2020 05:00:00 14,2 9,9 8 4 ENE 1014,3 10 0,0
29.03.2020 04:00:00 14,0 11,0 9 5 E - 10 -
29.03.2020 03:00:00 14,0 11,0 9 5 ENE - 10 -
29.03.2020 02:00:00 14,3 10,8 11 6 ENE 1015,1 10 -
29.03.2020 01:00:00 14,0 10,0 9 5 ENE - 10 -
29.03.2020 00:00:00 - - - - - - - -

tt = temperature
td = dewpoint
ff = wind speed
dd = wind direction
ppp = reduced air pressure
vv = visibility
rr = precipitation

Next stations